Mitchell, SD

5:44 PM CST on November 18, 2019 (GMT -0600)
Mitchell Municipal

Weather History for KMHE - September, 2019

Change the Weather History Date:

Wednesday, September 25, 2019

  Actual Average Record
Temperature  
Mean Temperature 58 °F 58 °F  
Max Temperature 64 °F 72 °F 93 °F (1938)
Min Temperature 51 °F 45 °F 20 °F (1926)
Degree Days  
Heating Degree Days 7 7  
Month to date heating degree days 13 98  
Since 1 July heating degree days 22 115  
Cooling Degree Days 0 1  
Month to date cooling degree days 142 68  
Year to date cooling degree days 936 813  
Growing Degree Days 8 (Base 50)    
Moisture  
Dew Point 47 °F    
Average Humidity 70    
Maximum Humidity 83    
Minimum Humidity 56    
Precipitation  
Precipitation T in 0.07 in 1.85 in (1908)
Month to date precipitation 7.61 1.96  
Year to date precipitation 32.65 18.31  
Snow  
Snow 0.00 in - T in (1984)
Month to date snowfall 0.0  
Since 1 July snowfall 0.0  
Since 1 September snowfall 0.0  
Snow Depth 0.00 in    
Sea Level Pressure  
Sea Level Pressure 29.91 in    
Wind  
Wind Speed 10 mph (West)    
Max Wind Speed 15 mph    
Max Gust Speed 22 mph    
Visibility 10 miles    
Events      
T = Trace of Precipitation, MM = Missing Value Source: NWS Daily Summary

Daily Weather History Graph

Daily Weather History Graph

Search for Another Location

Airport or City:

Astronomy

Sep. 25, 2019 Rise Set
Actual Time 7:22 AM CDT 7:24 PM CDT
Civil Twilight 6:53 AM CDT 7:52 PM CDT
Nautical Twilight 6:20 AM CDT 8:26 PM CDT
Astronomical Twilight 5:46 AM CDT 9:00 PM CDT
Moon 3:07 AM CDT (9/25) 6:06 PM CDT (9/25)
Length of Visible Light 12h 59m
Length of Day
12h 01m
Waning Crescent, 14% of the Moon is Illuminated
Sep 25
Waning Crescent
Sep 28
New
Oct 5
First Quarter
Oct 13
Full
Oct 21
Last Quarter

Hourly Weather History & Observations

Time (CDT) Temp. Dew Point Humidity Pressure Visibility Wind Dir Wind Speed Gust Speed Precip Events Conditions
12:53 AM 63.0 °F 48.9 °F 60% 29.74 in 10.0 mi West 9.2 mph - N/A   Mostly Cloudy
1:53 AM 63.0 °F 48.9 °F 60% 29.77 in 10.0 mi WNW 10.4 mph - N/A   Overcast
2:53 AM 63.0 °F 48.9 °F 60% 29.78 in 10.0 mi WNW 10.4 mph - 0.00 in   Mostly Cloudy
3:53 AM 61.0 °F 48.9 °F 64% 29.79 in 10.0 mi WNW 9.2 mph - 0.00 in   Partly Cloudy
4:53 AM 59.0 °F 50.0 °F 72% 29.82 in 10.0 mi West 6.9 mph - N/A   Partly Cloudy
5:53 AM 59.0 °F 48.9 °F 69% 29.83 in 10.0 mi West 5.8 mph - N/A   Partly Cloudy
6:53 AM 57.9 °F 48.9 °F 72% 29.87 in 10.0 mi WNW 9.2 mph - N/A   Partly Cloudy
7:53 AM 57.9 °F 48.0 °F 70% 29.88 in 10.0 mi WNW 8.1 mph - N/A   Clear
8:53 AM 57.9 °F 46.9 °F 67% 29.91 in 10.0 mi WNW 9.2 mph - N/A   Clear
9:53 AM 59.0 °F 46.0 °F 62% 29.92 in 10.0 mi NW 10.4 mph - N/A   Clear
10:53 AM 59.0 °F 46.0 °F 62% 29.94 in 10.0 mi WNW 8.1 mph - N/A   Clear
11:53 AM 60.1 °F 46.9 °F 62% 29.95 in 10.0 mi West 8.1 mph - N/A   Partly Cloudy
12:53 PM 62.1 °F 46.9 °F 58% 29.96 in 10.0 mi West 10.4 mph - N/A   Clear
1:53 PM 62.1 °F 46.9 °F 58% 29.94 in 10.0 mi West 11.5 mph 18.4 mph N/A   Clear
2:53 PM 62.1 °F 46.9 °F 58% 29.94 in 10.0 mi West 10.4 mph - N/A   Clear
3:53 PM 63.0 °F 46.9 °F 56% 29.93 in 10.0 mi West 11.5 mph - N/A   Clear
4:53 PM 62.1 °F 48.0 °F 60% 29.93 in 10.0 mi WSW 10.4 mph - N/A   Clear
5:53 PM 62.1 °F 48.0 °F 60% 29.96 in 10.0 mi West 11.5 mph - N/A   Clear
6:53 PM 61.0 °F 46.9 °F 60% 29.96 in 10.0 mi WSW 11.5 mph - N/A   Clear
7:53 PM 59.0 °F 46.9 °F 64% 29.98 in 10.0 mi WSW 11.5 mph - N/A   Clear
8:53 PM 57.0 °F 46.9 °F 69% 30.00 in 10.0 mi WSW 10.4 mph - N/A   Clear
9:53 PM 55.9 °F 46.0 °F 69% 30.01 in 10.0 mi West 10.4 mph - N/A   Clear
10:53 PM 53.1 °F 46.0 °F 77% 30.03 in 10.0 mi West 8.1 mph - N/A   Partly Cloudy
11:53 PM 52.0 °F 46.0 °F 80% 30.03 in 10.0 mi West 9.2 mph - N/A   Clear